Погода в Софиевке

Россия / Оренбургская область     53°10′55″N   54°26′37″E
темп.,
°C
ветер,
м/с
пор.,
м/с
влажн.,
%
обл.,
%
осадки,
мм/ч
давл.,
гПа
погр.,
м
16 апреля, пт
пт1623:00+10юв336857 0.0 102133
02:00+9вюв22675 0.0 102010
05:00+9вюв11635 0.0 102010
08:00+10в11607 0.0 102010
11:00+16в23445 0.0 1020356
14:00+19в33350 0.0 10191333
17:00+19всв33307 0.0 10191619
20:00+15всв224640 0.0 101915
17 апреля, сб
сб1723:00+12св3763100 0.0 1020103
02:00+9св49877 0.0 1021174
05:00+8всв36905 0.0 1022105
08:00+8в368614 0.0 1022196
11:00+13в34615 0.0 1022551
14:00+16всв34460 0.0 10211205
17:00+17св33425 0.0 10201792
20:00+13ссв69650 0.0 1021329
18 апреля, вс
вс1823:00+10св510580 0.0 1022265
02:00+7св511620 0.0 1022266
05:00+5св410645 0.0 1022214
08:00+6св410625 0.0 1023296
11:00+10св67430 0.0 1022684
14:00+13св55350 0.0 10221185
17:00+13св663612 0.0 10221356
20:00+10св5950100 0.0 1022351
19 апреля, пн
пн1923:00+7св61264100 0.0 1023396
02:00+6в61173100 0.0 1024479
05:00+3вюв71362100 0.0 1025492
08:00+3в71260100 0.0 1027590
11:00+3вюв81153100 0.0 1029729
14:00+4вюв81050100 0.0 1029856
17:00+6вюв6946100 0.0 10291085
20:00+6вюв61046100 0.0 1029786
20 апреля, вт
вт2023:00+3вюв71244100 0.0 1031663
02:000вюв7134599 0.0 1032588
05:00−1вюв7144976 0.0 1033549
08:000вюв713435 0.0 1035692
11:00+4юв79290 0.0 1035981
14:00+7юв79250 0.0 10331244
17:00+9юв79250 0.0 10321334
20:00+6юв610345 0.0 1031339